Time,TemperatureF,DewpointF,PressureIn,WindDirection,WindDirectionDegrees,WindSpeedMPH,WindSpeedGustMPH,Humidity,HourlyPrecipIn,Conditions,Clouds,dailyrainin,SolarRadiationWatts/m^2,SoftwareType,DateUTC
2013-01-19 00:02:00,14.0,9.0,-100.00,North,8,3.0,5.0,81,-99.99,,,0.00,0.000000,,2013-01-19 08:02:00,
2013-01-19 00:12:00,14.0,9.0,-100.00,North,8,3.0,5.0,81,-99.99,,,0.00,0.000000,,2013-01-19 08:12:00,
2013-01-19 00:42:00,12.0,8.0,-100.00,North,11,1.0,2.0,83,-99.99,,,0.00,0.000000,,2013-01-19 08:42:00,
2013-01-19 00:53:00,12.0,8.0,-100.00,North,11,1.0,2.0,83,-99.99,,,0.00,0.000000,,2013-01-19 08:53:00,
2013-01-19 01:02:00,12.0,8.0,-100.00,North,11,1.0,2.0,83,-99.99,,,0.00,0.000000,,2013-01-19 09:02:00,
2013-01-19 01:12:00,12.0,8.0,-100.00,North,11,1.0,2.0,83,-99.99,,,0.00,0.000000,,2013-01-19 09:12:00,
2013-01-19 01:42:00,8.0,4.0,-100.00,WNW,293,0.0,1.0,85,-99.99,,,0.00,0.000000,,2013-01-19 09:42:00,
2013-01-19 01:52:00,8.0,4.0,-100.00,WNW,293,0.0,1.0,85,-99.99,,,0.00,0.000000,,2013-01-19 09:52:00,
2013-01-19 02:02:00,8.0,4.0,-100.00,WNW,293,0.0,1.0,85,-99.99,,,0.00,0.000000,,2013-01-19 10:02:00,
2013-01-19 02:12:00,8.0,4.0,-100.00,WNW,293,0.0,1.0,85,-99.99,,,0.00,0.000000,,2013-01-19 10:12:00,
2013-01-19 02:42:00,8.0,5.0,-100.00,WNW,299,1.0,2.0,88,-99.99,,,-99.99,0.000000,,2013-01-19 10:42:00,
2013-01-19 02:53:00,8.0,5.0,-100.00,WNW,299,1.0,2.0,88,-99.99,,,-99.99,0.000000,,2013-01-19 10:53:00,
2013-01-19 03:02:00,8.0,5.0,-100.00,WNW,299,1.0,2.0,88,-99.99,,,-99.99,0.000000,,2013-01-19 11:02:00,
2013-01-19 03:12:00,8.0,5.0,-100.00,WNW,299,1.0,2.0,88,-99.99,,,-99.99,0.000000,,2013-01-19 11:12:00,
2013-01-19 04:48:00,6.0,3.0,-100.00,WNW,294,1.0,2.0,86,-99.99,,,0.00,0.000000,,2013-01-19 12:48:00,
2013-01-19 04:53:00,6.0,3.0,-100.00,WNW,294,1.0,2.0,86,-99.99,,,0.00,0.000000,,2013-01-19 12:53:00,
2013-01-19 05:02:00,6.0,3.0,-100.00,WNW,294,1.0,2.0,86,-99.99,,,0.00,0.000000,,2013-01-19 13:02:00,
2013-01-19 05:12:00,6.0,3.0,-100.00,WNW,294,1.0,2.0,86,-99.99,,,0.00,0.000000,,2013-01-19 13:12:00,
2013-01-19 05:42:00,5.0,1.0,-100.00,North,0,0.0,0.0,83,-99.99,,,0.00,0.000000,,2013-01-19 13:42:00,
2013-01-19 05:53:00,5.0,1.0,-100.00,North,0,0.0,0.0,83,-99.99,,,0.00,0.000000,,2013-01-19 13:53:00,
2013-01-19 06:02:00,5.0,1.0,-100.00,North,0,0.0,0.0,83,-99.99,,,0.00,0.000000,,2013-01-19 14:02:00,
2013-01-19 06:12:00,5.0,1.0,-100.00,North,0,0.0,0.0,83,-99.99,,,0.00,0.000000,,2013-01-19 14:12:00,
2013-01-19 06:42:00,5.0,1.0,-100.00,NE,40,0.0,1.0,84,-99.99,,,0.00,0.000000,,2013-01-19 14:42:00,
2013-01-19 06:53:00,5.0,1.0,-100.00,NE,40,0.0,1.0,84,-99.99,,,0.00,0.000000,,2013-01-19 14:53:00,
2013-01-19 07:03:00,5.0,1.0,-100.00,NE,40,0.0,1.0,84,-99.99,,,0.00,0.000000,,2013-01-19 15:03:00,
2013-01-19 07:12:00,5.0,1.0,-100.00,NE,40,0.0,1.0,84,-99.99,,,0.00,0.000000,,2013-01-19 15:12:00,
2013-01-19 07:43:00,4.0,0.0,-100.00,WNW,295,1.0,2.0,83,-99.99,,,0.00,3.020000,,2013-01-19 15:43:00,
2013-01-19 07:53:00,4.0,0.0,-100.00,WNW,295,1.0,2.0,83,-99.99,,,0.00,3.020000,,2013-01-19 15:53:00,
2013-01-19 08:02:00,4.0,0.0,-100.00,WNW,295,1.0,2.0,83,-99.99,,,0.00,3.020000,,2013-01-19 16:02:00,
2013-01-19 08:12:00,4.0,0.0,-100.00,WNW,295,1.0,2.0,83,-99.99,,,0.00,3.020000,,2013-01-19 16:12:00,
2013-01-19 08:43:00,10.0,6.0,-100.00,North,0,0.0,0.0,84,-99.99,,,0.00,131.910004,,2013-01-19 16:43:00,
2013-01-19 08:54:00,10.0,6.0,-100.00,North,0,0.0,0.0,84,-99.99,,,0.00,131.910004,,2013-01-19 16:54:00,
2013-01-19 09:02:00,10.0,6.0,-100.00,North,0,0.0,0.0,84,-99.99,,,0.00,131.910004,,2013-01-19 17:02:00,
2013-01-19 09:34:00,18.0,12.0,-100.00,East,94,1.0,4.0,78,-99.99,,,0.00,299.500000,,2013-01-19 17:34:00,
2013-01-19 09:46:00,18.0,12.0,-100.00,East,94,1.0,4.0,78,-99.99,,,0.00,299.500000,,2013-01-19 17:46:00,
2013-01-19 09:54:00,18.0,12.0,-100.00,East,94,1.0,4.0,78,-99.99,,,0.00,299.500000,,2013-01-19 17:54:00,
2013-01-19 10:05:00,18.0,12.0,-100.00,East,94,1.0,4.0,78,-99.99,,,0.00,299.500000,,2013-01-19 18:05:00,
2013-01-19 10:13:00,18.0,12.0,-100.00,East,94,1.0,4.0,78,-99.99,,,0.00,299.500000,,2013-01-19 18:13:00,
2013-01-19 10:15:00,22.0,14.0,-100.00,NE,47,2.0,5.0,71,-99.99,,,-99.99,442.220001,,2013-01-19 18:15:00,
2013-01-19 10:44:00,22.0,14.0,-100.00,NE,47,2.0,5.0,71,-99.99,,,-99.99,442.220001,,2013-01-19 18:44:00,
2013-01-19 11:05:00,22.0,14.0,-100.00,NE,47,2.0,5.0,71,-99.99,,,-99.99,442.220001,,2013-01-19 19:05:00,
2013-01-19 11:44:00,27.0,15.0,-100.00,East,84,3.0,6.0,58,-99.99,,,0.00,530.429993,,2013-01-19 19:44:00,
2013-01-19 11:55:00,27.0,15.0,-100.00,East,84,3.0,6.0,58,-99.99,,,0.00,530.429993,,2013-01-19 19:55:00,
2013-01-19 12:14:00,27.0,15.0,-100.00,East,84,3.0,6.0,58,-99.99,,,0.00,530.429993,,2013-01-19 20:14:00,
2013-01-19 12:45:00,31.0,15.0,-100.00,ENE,78,2.0,6.0,51,-99.99,,,-99.99,558.320007,,2013-01-19 20:45:00,
2013-01-19 12:56:00,31.0,15.0,-100.00,ENE,78,2.0,6.0,51,-99.99,,,-99.99,558.320007,,2013-01-19 20:56:00,
2013-01-19 13:13:00,31.0,15.0,-100.00,ENE,78,2.0,6.0,51,-99.99,,,-99.99,558.320007,,2013-01-19 21:13:00,
2013-01-19 13:48:00,33.0,16.0,-100.00,ENE,70,3.0,7.0,48,-99.99,,,0.00,524.969971,,2013-01-19 21:48:00,
2013-01-19 13:59:00,33.0,16.0,-100.00,ENE,70,3.0,7.0,48,-99.99,,,0.00,524.969971,,2013-01-19 21:59:00,
2013-01-19 14:07:00,33.0,16.0,-100.00,ENE,70,3.0,7.0,48,-99.99,,,0.00,524.969971,,2013-01-19 22:07:00,
2013-01-19 14:14:00,33.0,16.0,-100.00,ENE,70,3.0,7.0,48,-99.99,,,0.00,524.969971,,2013-01-19 22:14:00,
2013-01-19 14:45:00,35.0,16.0,-100.00,NE,42,3.0,8.0,45,-99.99,,,0.00,435.709991,,2013-01-19 22:45:00,
2013-01-19 14:57:00,35.0,16.0,-100.00,NE,42,3.0,8.0,45,-99.99,,,0.00,435.709991,,2013-01-19 22:57:00,
2013-01-19 15:08:00,35.0,16.0,-100.00,NE,42,3.0,8.0,45,-99.99,,,0.00,435.709991,,2013-01-19 23:08:00,
2013-01-19 15:13:00,35.0,16.0,-100.00,NE,42,3.0,8.0,45,-99.99,,,0.00,435.709991,,2013-01-19 23:13:00,
2013-01-19 15:45:00,36.0,16.0,-100.00,NE,46,3.0,6.0,42,-99.99,,,0.00,303.329987,,2013-01-19 23:45:00,
2013-01-19 16:07:00,36.0,16.0,-100.00,NE,46,3.0,6.0,42,-99.99,,,0.00,303.329987,,2013-01-20 00:07:00,
2013-01-19 16:13:00,36.0,16.0,-100.00,NE,46,3.0,6.0,42,-99.99,,,0.00,303.329987,,2013-01-20 00:13:00,
2013-01-19 16:15:00,35.0,15.0,-100.00,NE,42,3.0,5.0,43,-99.99,,,-99.99,143.070007,,2013-01-20 00:15:00,
2013-01-19 16:45:00,35.0,15.0,-100.00,NE,42,3.0,5.0,43,-99.99,,,-99.99,143.070007,,2013-01-20 00:45:00,
2013-01-19 16:55:00,35.0,15.0,-100.00,NE,42,3.0,5.0,43,-99.99,,,-99.99,143.070007,,2013-01-20 00:55:00,
2013-01-19 17:03:00,35.0,15.0,-100.00,NE,42,3.0,5.0,43,-99.99,,,-99.99,143.070007,,2013-01-20 01:03:00,
2013-01-19 17:35:00,31.0,15.0,-100.00,ENE,60,2.0,3.0,50,-99.99,,,0.00,1.980000,,2013-01-20 01:35:00,
2013-01-19 17:45:00,31.0,15.0,-100.00,ENE,60,2.0,3.0,50,-99.99,,,0.00,1.980000,,2013-01-20 01:45:00,
2013-01-19 18:02:00,31.0,15.0,-100.00,ENE,60,2.0,3.0,50,-99.99,,,0.00,1.980000,,2013-01-20 02:02:00,
2013-01-19 18:13:00,31.0,15.0,-100.00,ENE,60,2.0,3.0,50,-99.99,,,0.00,1.980000,,2013-01-20 02:13:00,
2013-01-19 18:44:00,27.0,15.0,-100.00,NNE,25,2.0,3.0,59,-99.99,,,-99.99,0.000000,,2013-01-20 02:44:00,
2013-01-19 18:58:00,27.0,15.0,-100.00,NNE,25,2.0,3.0,59,-99.99,,,-99.99,0.000000,,2013-01-20 02:58:00,
2013-01-19 19:05:00,27.0,15.0,-100.00,NNE,25,2.0,3.0,59,-99.99,,,-99.99,0.000000,,2013-01-20 03:05:00,
2013-01-19 19:13:00,27.0,15.0,-100.00,NNE,25,2.0,3.0,59,-99.99,,,-99.99,0.000000,,2013-01-20 03:13:00,
2013-01-19 19:45:00,21.0,13.0,-100.00,South,178,1.0,1.0,72,-99.99,,,0.00,0.000000,,2013-01-20 03:45:00,
2013-01-19 19:56:00,21.0,13.0,-100.00,South,178,1.0,1.0,72,-99.99,,,0.00,0.000000,,2013-01-20 03:56:00,
2013-01-19 20:04:00,21.0,13.0,-100.00,South,178,1.0,1.0,72,-99.99,,,0.00,0.000000,,2013-01-20 04:04:00,
2013-01-19 20:14:00,21.0,13.0,-100.00,South,178,1.0,1.0,72,-99.99,,,0.00,0.000000,,2013-01-20 04:14:00,
2013-01-19 20:44:00,18.0,13.0,-100.00,North,0,0.0,0.0,80,-99.99,,,0.00,0.120000,,2013-01-20 04:44:00,
2013-01-19 20:55:00,18.0,13.0,-100.00,North,0,0.0,0.0,80,-99.99,,,0.00,0.120000,,2013-01-20 04:55:00,
2013-01-19 21:03:00,18.0,13.0,-100.00,North,0,0.0,0.0,80,-99.99,,,0.00,0.120000,,2013-01-20 05:03:00,
2013-01-19 21:12:00,18.0,13.0,-100.00,North,0,0.0,0.0,80,-99.99,,,0.00,0.120000,,2013-01-20 05:12:00,
2013-01-19 21:32:00,17.0,12.0,-100.00,WNW,300,1.0,2.0,81,-99.99,,,0.00,0.120000,,2013-01-20 05:32:00,
2013-01-19 21:42:00,17.0,12.0,-100.00,WNW,300,1.0,2.0,81,-99.99,,,0.00,0.120000,,2013-01-20 05:42:00,
2013-01-19 21:53:00,17.0,12.0,-100.00,WNW,300,1.0,2.0,81,-99.99,,,0.00,0.120000,,2013-01-20 05:53:00,
2013-01-19 22:02:00,17.0,12.0,-100.00,WNW,300,1.0,2.0,81,-99.99,,,0.00,0.120000,,2013-01-20 06:02:00,
2013-01-19 22:11:00,17.0,12.0,-100.00,WNW,300,1.0,2.0,81,-99.99,,,0.00,0.120000,,2013-01-20 06:11:00,
2013-01-19 22:33:00,17.0,12.0,-100.00,NNE,23,3.0,4.0,81,-99.99,,,0.00,0.120000,,2013-01-20 06:33:00,
2013-01-19 22:42:00,17.0,12.0,-100.00,NNE,23,3.0,4.0,81,-99.99,,,0.00,0.120000,,2013-01-20 06:42:00,
2013-01-19 22:53:00,17.0,12.0,-100.00,NNE,23,3.0,4.0,81,-99.99,,,0.00,0.120000,,2013-01-20 06:53:00,
2013-01-19 23:02:00,17.0,12.0,-100.00,NNE,23,3.0,4.0,81,-99.99,,,0.00,0.120000,,2013-01-20 07:02:00,
2013-01-19 23:11:00,17.0,12.0,-100.00,NNE,23,3.0,4.0,81,-99.99,,,0.00,0.120000,,2013-01-20 07:11:00,
2013-01-19 23:32:00,13.0,9.0,-100.00,SSW,213,0.0,1.0,84,-99.99,,,0.00,0.000000,,2013-01-20 07:32:00,
2013-01-19 23:42:00,13.0,9.0,-100.00,SSW,213,0.0,1.0,84,-99.99,,,0.00,0.000000,,2013-01-20 07:42:00,
2013-01-19 23:52:00,13.0,9.0,-100.00,SSW,213,0.0,1.0,84,-99.99,,,0.00,0.000000,,2013-01-20 07:52:00,